www.pogodaiklimat.ru

Погода и климат >> Архив погоды >> Ирландия >> Mace Head


ПОГОДА в Mace Head

  • Прогноз погоды в Mace Head
  • Монитор погоды в Mace Head
  • Климат города

АРХИВ ПОГОДЫ в Mace Head

Время (UTC), дата Ветер
(напр.,м/с)
 
Видим.   Явления Облачность Т
(С)
Тd
(С)
f
(%)
Тe
(С)
Тes
(С)
Комфортность P
(гПа)
Po
(гПа)
Тmin
(С)
Tmax
(С)
R
(мм)
R24
(мм)
S
(см)
16 16.06 З 10 10 км н/о +13.2 +10.5 84 +10 +10 1010.8 1008.1
17 16.06 З 11 13 км в посл. час морось {ливн. осадки} н/о +12.7 +9.4 80 +9 +9 1011.4 1008.6
18 16.06 З 9 11 км {ливн. осадки, дымка} н/о +12.8 +10.3 85 +10 +10 1011.4 1008.6 0.0
19 16.06 З 9 10 км н/о +12.5 +10.3 86 +9 +9 1011.7 1008.9
20 16.06 З 10 11 км н/о +12.2 +10.1 87 +9 +9 1012.1 1009.3
21 16.06 З 9 10 км н/о +12.3 +9.9 85 +9 +9 1012.4 1009.6
22 16.06 З 8 12 км слаб. ливневой дождь н/о +12.0 +9.9 87 +9 +9 1012.4 1009.6
23 16.06 ЮЗ 7 11 км слаб. ливневой дождь н/о +11.7 +9.7 88 +8 +8 1012.0 1009.2
00 17.06 ЮЗ 6 9000 м слаб. ливневой дождь н/о +11.5 +9.6 88 +8 +8 1011.8 1008.9 0.5
01 17.06 ЮЗ 7 13 км морось {дождь} н/о +11.1 +9.6 90 +8 +8 1011.1 1008.3
02 17.06 Ю 7 13 км морось н/о +11.1 +9.8 92 +8 +8 1010.3 1007.5
03 17.06 Ю 7 6000 м слаб. ливневой дождь н/о +11.5 +10.4 93 +8 +8 1009.5 1006.7
04 17.06 ЮВ 6 3000 м морось н/о +11.2 +10.3 94 +8 +8 1008.4 1005.6
05 17.06 ЮВ 8 4100 м морось н/о +11.2 +10.5 95 +7 +7 1007.6 1004.8
06 17.06 ЮВ 8 3900 м слаб. морось {ливн. осадки, дождь} н/о +11.4 +10.8 96 +8 +8 1007.2 1004.4 +10.9 3
07 17.06 Ю 8 3000 м слаб. ливневой дождь н/о +12.2 +11.6 96 +9 +9 1007.1 1004.3
08 17.06 ЮЗ 7 3600 м слаб. морось н/о +13.2 +12.7 97 +10 +10 1007.2 1004.4
09 17.06 ЮЗ 8 6000 м дымка {ливн. осадки, морось} н/о +13.1 +12.6 97 +10 +10 1007.8 1005.0
10 17.06 З 9 9000 м дымка н/о +13.0 +12.5 97 +10 +10 1008.7 1005.9
11 17.06 ЮЗ 8 12 км н/о +13.8 +13.0 95 +11 +11 1008.7 1005.9
12 17.06 ЮЗ 8 10 км {ливн. осадки, морось} н/о +13.8 +12.8 94 +11 +11 1009.2 1006.5 0.5
13 17.06 ЮЗ 7 11 км н/о +13.9 +12.6 92 +11 +11 1009.4 1006.6
14 17.06 ЮЗ 9 14 км н/о +13.9 +12.3 90 +11 +11 1010.4 1007.6
15 17.06 З 8 14 км н/о +13.5 +12.3 92 +11 +11 1010.9 1008.1
16 17.06 ЮЗ 8 2400 м дымка н/о +13.1 +12.0 93 +10 +10 1011.3 1008.5
17 17.06 З 8 4800 м слаб. ливневой дождь н/о +12.5 +11.5 94 +9 +9 1011.8 1009.0
18 17.06 З 8 5000 м в посл. час морось {ливн. осадки} н/о +12.5 +11.2 92 +9 +9 1012.3 1009.5 +14.3 1
19 17.06 З 9 7000 м дымка н/о +12.2 +10.9 92 +9 +9 1012.9 1010.1
20 17.06 З 8 12 км н/о +12.6 +9.7 82 +10 +10 1013.5 1010.7
21 17.06 З 9 12 км н/о +12.5 +9.2 80 +9 +9 1014.1 1011.3
22 17.06 З 7 12 км н/о +12.3 +8.9 80 +9 +9 1014.7 1011.9
23 17.06 З 9 15 км н/о +12.3 +8.4 77 +9 +9 1014.9 1012.1
00 18.06 ЮЗ 8 12 км н/о +12.3 +9.3 82 +9 +9 1015.0 1012.2
01 18.06 ЮЗ 8 12 км н/о +12.3 +9.7 84 +9 +9 1015.0 1012.2
02 18.06 З 10 17 км н/о +12.4 +8.8 79 +9 +9 1014.7 1011.9
03 18.06 ЮЗ 8 13 км н/о +12.4 +9.8 84 +9 +9 1014.7 1011.9
04 18.06 З 9 12 км н/о +12.4 +9.9 85 +9 +9 1014.9 1012.0
05 18.06 ЮЗ 7 12 км н/о +12.2 +9.8 85 +9 +9 1014.9 1012.1
06 18.06 ЮЗ 6 11 км н/о +12.5 +10.5 88 +10 +10 1015.1 1012.3 +12.1
07 18.06 ЮЗ 5 12 км н/о +12.9 +10.7 86 +11 +11 1015.0 1012.2
08 18.06 ЮЗ 5 11 км н/о +12.8 +10.8 88 +11 +11 1015.4 1012.6
09 18.06 ЮЗ 6 15 км н/о +13.1 +11.1 88 +11 +11 1015.3 1012.5
10 18.06 ЮЗ 6 12 км н/о +13.2 +11.8 91 +11 +11 1015.3 1012.5
11 18.06 ЮЗ 5 14 км н/о +13.2 +12.1 93 +11 +11 1015.3 1012.5
12 18.06 ЮЗ 6 14 км н/о +13.3 +12.3 94 +11 +11 1015.3 1012.5
13 18.06 З 6 15 км н/о +13.8 +11.9 88 +12 +12 1015.7 1012.9
14 18.06 З 7 14 км н/о +13.1 +10.8 86 +10 +10 1016.0 1013.2
15 18.06 З 7 19 км н/о +13.4 +10.4 82 +11 +11 1016.4 1013.6
16 18.06 З 8 15 км н/о +13.8 +10.4 80 +11 +11 1016.8 1014.0
17 18.06 З 8 13 км н/о +14.0 +10.1 77 +12 +12 1017.4 1014.6
18 18.06 З 8 14 км н/о +13.6 +10.0 79 +11 +11 1017.8 1015.0
19 18.06 З 7 14 км н/о +12.5 +9.0 79 +10 +10 1018.4 1015.6
20 18.06 З 7 16 км н/о +12.3 +7.9 74 +9 +9 1019.0 1016.2
21 18.06 З 7 18 км н/о +11.8 +7.5 75 +9 +9 1020.1 1017.3
22 18.06 З 6 16 км н/о +11.7 +7.6 76 +9 +9 1020.4 1017.6
23 18.06 З 6 15 км н/о +11.7 +7.6 76 +9 +9 1020.4 1017.6
00 19.06 З 5 17 км н/о +11.6 +7.5 76 +9 +9 1020.5 1017.6
01 19.06 З 5 18 км н/о +11.5 +7.3 75 +9 +9 1020.5 1017.7
02 19.06 З 4 17 км н/о +11.6 +7.5 76 +9 +9 1020.2 1017.3
03 19.06 З 3 19 км н/о +11.6 +7.8 77 +10 +10 1019.7 1016.9
04 19.06 З 3 20 км н/о +11.5 +7.0 74 +10 +10 1019.7 1016.9
05 19.06 З 2 20 км н/о +11.5 +6.8 73 +10 +10 1019.7 1016.9
06 19.06 Ю 1 21 км н/о +11.8 +7.4 74 +12 +12 1019.2 1016.4
07 19.06 Ю 2 16 км н/о +11.8 +7.6 75 +11 +11 1019.5 1016.7
08 19.06 ЮВ 2 30 км н/о +11.7 +7.3 74 +11 +11 1019.1 1016.3
09 19.06 ЮВ 4 26 км н/о +11.9 +8.2 78 +10 +10 1018.4 1015.6
10 19.06 ЮВ 6 7000 м дымка н/о +11.5 +9.7 89 +8 +8 1017.9 1015.1
11 19.06 ЮВ 7 6000 м слаб. ливневой дождь н/о +11.4 +10.1 92 +8 +8 1017.0 1014.2
12 19.06 ЮВ 7 5000 м слаб. ливневой дождь {дымка} н/о +12.3 +11.4 94 +9 +9 1016.0 1013.2 0.7
13 19.06 Ю 8 800 м слаб. ливневой дождь ?/? +13.8 +13.2 96 +11 +11 1014.9 1012.1
14 19.06 Ю 11 4600 м в посл. час дождь {ливн. осадки} н/о +14.2 +13.6 96 +11 +11 1014.4 1011.6
15 19.06 ЮЗ 12 9000 м дымка {ливн. осадки} н/о +14.6 +13.7 94 +12 +12 1014.1 1011.3
16 19.06 ЮЗ 12 8000 м дымка н/о +14.7 +13.6 93 +12 +12 1013.7 1011.0
17 19.06 ЮЗ 13 3100 м дымка н/о +14.3 +13.5 95 +11 +11 1013.3 1010.6
18 19.06 ЮЗ 12 1400 м дымка {ливн. осадки} ?/? +14.2 +13.5 96 +11 +11 1012.9 1010.1 +14.8 3
19 19.06 ЮЗ 13 1500 м слаб. ливневой дождь ?/? +14.1 +13.6 97 +11 +11 1012.5 1009.7
20 19.06 Ю 13 2800 м слаб. ливневой дождь н/о +14.0 +13.5 97 +11 +11 1012.1 1009.3
21 19.06 ЮЗ 11 2500 м слаб. ливневой дождь н/о +13.9 +13.4 97 +11 +11 1012.3 1009.5
22 19.06 ЮЗ 12 2600 м в посл. час морось н/о +13.9 +13.4 97 +11 +11 1012.5 1009.7
23 19.06 ЮЗ 11 4200 м дымка н/о +13.8 +13.3 97 +11 +11 1012.5 1009.7
00 20.06 ЮЗ 11 5000 м дымка {ливн. осадки, морось} н/о +13.7 +13.2 97 +10 +10 1011.9 1009.1 3
01 20.06 ЮЗ 11 1700 м морось н/о +13.5 +13.0 97 +10 +10 1012.2 1009.4
02 20.06 ЮЗ 10 3600 м морось н/о +13.1 +12.7 97 +10 +10 1012.5 1009.7
03 20.06 СЗ 9 40 км {морось} н/о +11.6 +11.1 97 +8 +8 1013.8 1011.0
04 20.06 СЗ 10 35 км н/о +11.4 +10.2 92 +7 +7 1015.5 1012.6
05 20.06 СЗ 10 29 км н/о +10.9 +9.4 90 +7 +7 1016.7 1013.9
06 20.06 СЗ 8 45 км {морось} н/о +11.1 +8.4 83 +7 +7 1018.6 1015.7 +10.8 3
07 20.06 СЗ 8 30 км н/о +11.8 +8.7 81 +8 +8 1020.0 1017.1
08 20.06 СЗ 6 30 км н/о +12.4 +7.4 72 +10 +10 1021.0 1018.1
09 20.06 СЗ 8 19 км слаб. ливневой дождь н/о +11.8 +8.4 80 +8 +8 1022.0 1019.2
10 20.06 СЗ 9 30 км н/о +13.2 +7.6 69 +10 +10 1022.5 1019.7
11 20.06 СЗ 9 29 км н/о +13.5 +6.5 63 +11 +11 1023.4 1020.5
12 20.06 СЗ 9 23 км н/о +13.9 +7.0 63 +11 +11 1023.9 1021.1 0.0
13 20.06 З 9 40 км н/о +14.0 +5.5 57 +12 +12 1024.2 1021.3
14 20.06 СЗ 8 28 км н/о +13.0 +6.5 65 +10 +10 1024.7 1021.8
15 20.06 СЗ 7 30 км н/о +13.1 +6.8 66 +11 +11 1025.1 1022.3
16 20.06 З 9 30 км н/о +12.8 +6.7 66 +10 +10 1025.5 1022.6
17 20.06 СЗ 10 30 км н/о +12.8 +7.4 70 +10 +10 1025.7 1022.9
18 20.06 СЗ 10 22 км н/о +12.4 +7.3 71 +9 +9 1025.9 1023.1 +14.5 0.0
19 20.06 СЗ 10 28 км н/о +12.1 +6.9 70 +9 +9 1026.2 1023.3
20 20.06 СЗ 8 21 км н/о +11.7 +7.6 76 +8 +8 1026.7 1023.9
21 20.06 СЗ 8 35 км в посл. час морось н/о +11.1 +6.2 72 +8 +8 1027.2 1024.4
22 20.06 СЗ 10 26 км н/о +11.4 +7.0 74 +8 +8 1027.7 1024.8
23 20.06 СЗ 8 27 км н/о +11.1 +7.2 77 +8 +8 1028.3 1025.4
00 21.06 СЗ 8 30 км {морось} н/о +10.5 +6.2 75 +7 +7 1028.7 1025.8 0.0
01 21.06 СЗ 7 22 км н/о +10.2 +6.2 76 +7 +7 1029.1 1026.3
02 21.06 СЗ 7 29 км н/о +10.4 +5.9 74 +7 +7 1029.4 1026.5
03 21.06 СЗ 6 28 км н/о +10.3 +6.2 76 +7 +7 1029.9 1027.0
04 21.06 СЗ 6 28 км н/о +10.0 +6.0 76 +7 +7 1029.9 1027.0
05 21.06 С 6 24 км н/о +10.4 +5.9 74 +7 +7 1030.6 1027.7
06 21.06 СЗ 6 28 км н/о +11.0 +5.8 70 +8 +8 1031.2 1028.3 +9.9 0.0
07 21.06 СЗ 6 30 км н/о +11.7 +6.0 68 +9 +9 1031.7 1028.8
08 21.06 СЗ 5 30 км н/о +12.9 +6.5 65 +11 +11 1032.1 1029.3
09 21.06 СЗ 6 30 км н/о +13.0 +6.4 64 +11 +11 1032.7 1029.9
10 21.06 С 7 30 км н/о +14.0 +6.4 60 +12 +12 1033.3 1030.4
11 21.06 С 7 30 км н/о +14.8 +6.7 58 +13 +13 1033.5 1030.6
12 21.06 С 7 29 км н/о +15.1 +7.2 59 +13 +13 1033.7 1030.8
13 21.06 С 6 29 км н/о +15.7 +6.8 55 +14 +14 1033.9 1031.1
14 21.06 С 7 30 км н/о +15.6 +7.4 58 +14 +14 1033.8 1031.0
15 21.06 СЗ 7 30 км н/о +15.1 +6.7 57 +13 +13 1034.1 1031.3
16 21.06 СЗ 7 30 км н/о +15.1 +6.7 57 +13 +13 1034.4 1031.6
17 21.06 С 6 35 км н/о +15.3 +7.4 59 +14 +14 1034.7 1031.9
18 21.06 СЗ 7 30 км н/о +14.3 +6.7 60 +12 +12 1034.9 1032.0
19 21.06 С 8 35 км н/о +13.4 +6.6 63 +11 +11 1035.0 1032.1
20 21.06 С 7 40 км н/о +12.7 +6.5 66 +10 +10 1035.2 1032.3
21 21.06 С 8 45 км н/о +11.7 +6.7 71 +8 +8 1035.6 1032.7
22 21.06 С 7 35 км н/о +11.1 +7.2 77 +8 +8 1036.0 1033.1
23 21.06 С 3 45 км н/о +10.1 +6.4 78 +8 +8 1036.3 1033.4
00 22.06 В 2 50 км н/о +8.9 +5.5 79 +7 +7 1036.3 1033.4
01 22.06 СВ 2 50 км н/о +8.0 +5.0 81 +6 +6 1036.0 1033.1
02 22.06 СВ 2 50 км н/о +7.6 +4.8 82 +6 +6 1036.0 1033.1
03 22.06 ЮВ 2 50 км н/о +8.5 +4.5 76 +7 +7 1035.7 1032.8
04 22.06 С 1 50 км н/о +8.3 +4.4 76 +8 +8 1035.8 1032.9
05 22.06 С 1 40 км н/о +7.8 +5.4 85 +7 +7 1035.9 1033.0
06 22.06 В 1 40 км н/о +10.0 +7.4 84 +10 +10 1035.9 1033.0 +7.2
07 22.06 Ю 1 35 км н/о +11.1 +6.7 74 +11 +11 1036.0 1033.1
08 22.06 ЮЗ 2 30 км н/о +11.7 +6.8 72 +11 +11 1036.0 1033.1
09 22.06 З 2 35 км н/о +12.1 +7.1 71 +11 +11 1035.9 1033.1
10 22.06 З 3 27 км н/о +12.8 +7.5 70 +12 +12 1036.0 1033.1
11 22.06 З 4 30 км н/о +13.7 +7.5 66 +12 +12 1035.6 1032.8
12 22.06 ЮЗ 5 27 км н/о +13.9 +8.6 70 +12 +12 1035.3 1032.5
13 22.06 З 6 35 км н/о +14.5 +8.4 67 +13 +13 1035.1 1032.2
14 22.06 З 7 30 км н/о +14.3 +8.7 69 +12 +12 1034.6 1031.8
15 22.06 З 7 40 км н/о +14.5 +8.4 67 +13 +13 1034.4 1031.5
16 22.06 З 7 40 км н/о +14.5 +7.8 64 +13 +13 1034.1 1031.3
17 22.06 З 7 28 км н/о +14.6 +7.8 64 +13 +13 1033.7 1030.9
18 22.06 СЗ 6 30 км н/о +14.8 +8.7 67 +13 +13 1033.3 1030.4 +15.0
19 22.06 СЗ 5 40 км н/о +14.4 +8.5 68 +13 +13 1033.1 1030.2
20 22.06 СЗ 5 45 км н/о +13.0 +8.5 74 +11 +11 1032.6 1029.7
21 22.06 С 4 50 км н/о +12.3 +8.1 76 +10 +10 1032.6 1029.7
22 22.06 С 1 50 км н/о +11.4 +7.5 77 +11 +11 1032.6 1029.7
23 22.06 СВ 2 50 км н/о +10.2 +7.3 82 +9 +9 1032.6 1029.7
00 23.06 СВ 2 50 км н/о +9.7 +7.4 86 +8 +8 1032.6 1029.8
01 23.06 ЮЗ 1 40 км н/о +10.3 +8.5 89 +10 +10 1032.2 1029.4
02 23.06 В 2 35 км н/о +9.7 +8.2 90 +8 +8 1031.8 1028.9
03 23.06 СВ 3 45 км н/о +8.5 +7.2 92 +6 +6 1031.8 1028.9
04 23.06 СВ 2 50 км н/о +8.7 +7.7 93 +7 +7 1031.4 1028.5
05 23.06 В 2 45 км н/о +8.6 +7.5 93 +7 +7 1031.0 1028.1
06 23.06 В 1 35 км н/о +10.9 +9.8 93 +10 +10 1031.0 1028.1 +8.1
07 23.06 В 1 35 км н/о +12.7 +10.0 84 +13 +13 1031.0 1028.1
08 23.06 СЗ 1 40 км н/о +12.7 +9.6 81 +13 +13 1030.9 1028.0
09 23.06 З 2 40 км н/о +13.2 +9.9 80 +12 +12 1030.8 1028.0
10 23.06 ЮЗ 3 30 км н/о +13.2 +9.5 78 +12 +12 1030.7 1027.9
11 23.06 З 3 30 км н/о +14.5 +10.7 78 +14 +14 1030.7 1027.9
12 23.06 З 4 35 км н/о +13.9 +9.8 76 +12 +12 1030.2 1027.4
13 23.06 З 4 30 км н/о +14.8 +10.0 73 +14 +14 1029.7 1026.9
14 23.06 З 5 30 км н/о +14.8 +9.5 71 +13 +13 1029.4 1026.5
15 23.06 З 5 25 км н/о +14.9 +9.0 68 +14 +14 1029.0 1026.2
16 23.06 З 5 26 км н/о +15.2 +8.2 63 +14 +14 1028.6 1025.8

 

Местоположение метеостанции Mace Head (Ирландия): широта 53.32 долгота -9.90 высота над уровнем моря 21 м.

В архиве по умолчанию представлена погода в Mace Head за последнюю неделю. Архивные данные за месяц целиком и за предыдущие месяцы, начиная с января 2011 года, Вы можете получить, выбрав интересующий диапазон дат из раскрывающегося списка и нажав кнопку "Ввод!".


*Определитесь, кто Вы:
робот инопланетянин человек

Внимание! Время в таблицах - всемирное. Для получения местного времени необходимо прибавить поправку, которая в Mace Head равна 0 ч.

Смотрите также архив погоды в соседних городах и на ближайших метеорологических станциях:

Погода в Claremorris (Ирландия) (74 км)
Погода в Shannon Airport (Ирландия) (96 км)
Погода в Knock Airport (Ирландия) (97 км)
Погода в Belmullet (Ирландия) (101 км)
Погода в Gurteen (Ирландия) (130 км)
Погода в Valentia Observatory (Ирландия) (156 км)
Погода в Finner (Ирландия) (170 км)
Погода в Mullingar (Ирландия) (170 км)
Погода в Thomastown (Великобритания) (189 км)
Погода в Ballyhaise, Cavan (Ирландия) (189 км)

Пояснения к столбцам:

Ветер - указаны скорость ветра в м/с - средняя за 10 мин, порывы в срок и между сроками (в фигурных скобках) и направление, откуда дует ветер: С - северный, СВ - северо-восточный, В - восточный, ЮВ - юго-восточный, Ю - южный, ЮЗ - юго-западный, З - западный, СЗ - северо-западный.
Видимость - горизонтальная дальность видимости в метрах или километрах. При видимости от 1 до 10 км при отсутствии осадков обычно наблюдается дымка, при ухудшении видимости до 1 км и менее - туман. В сухую погоду видимость может ухудшаться дымом, пылью или мглою.
Явления - указаны атмосферные явления, наблюдавшиеся в срок или в последний час перед сроком; фигурными скобками обозначены явления, наблюдавшиеся между сроками (за 1-3 часа до срока); квадратными скобками обозначены град или гололедные отложения с указанием их диаметра в мм.
Облачность - указаны через наклонную черту общая и нижняя облачность в баллах и высота нижней границы облаков в метрах; квадратными скобками обозначены формы облаков: Ci - перистые, Cs - перисто-слоистые, Cc - перисто-кучевые, Ac - высококучевые, As - высокослоистые, Sc - слоисто-кучевые, Ns - слоисто-дождевые, Cu - кучевые, Cb - кучево-дождевые. Подробнее классификацию облаков см. в Атласе облаков (PDF).
T - Температура воздуха - температура, измеренная на высоте 2 м над землей.
Td - Температура точки росы - температура, при понижении до которой содержащийся в воздухе водяной пар достигнет насыщения.
f - Относительная влажность воздуха - влажноcть воздуха, измеренная на высоте 2 м над землей.
Te - Эффективная температура - температура, которую ощущает одетый по сезону человек в тени. Характеристика душности погоды. При расчете учитывается влияние влажности воздуха и скорости ветра на теплоощущения человека.
Tes - Эффективная температура на солнце - температура, которую ощущает человек, с поправкой на солнечный нагрев. Характеристика знойности погоды. Зависит от высоты солнца над горизонтом, облачности и скорости ветра. Ночью, в пасмурную погоду, а также при ветре 12 м/с и более поправка равна нулю.
P - Атмосферное давление - приведенное к уровню моря атмосферное давление.
Po - Атмосферное давление - измеренное на уровне метеостанции атмосферное давление.
Tmin - Минимальная температура - минимум температуры воздуха на высоте 2 м над землей.
Tmax - Максимальная температура - максимум температуры воздуха на высоте 2 м над землей.
R - Количество осадков - Количество выпавших осадков за период времени, мм. При наведении курсора мыши на число - период времени, за который выпало указанное количество осадков.
R24 - Количество осадков - Количество выпавших осадков за 24 часа, мм.
S - Снежный покров - Высота снежного покрова, см. При наведении курсора мыши на число - состояние снежного покрова и степень покрытия местности в баллах.